Terminal Aerodrome Forecast
Issued by NWS

Home | Current Version | Previous Version | Text Only | Print | Product List | Glossary On
Versions: 1 2 3 4 5 6 7 8 9 10 11 12 13 14 15 16 17 18 19 20 21 22 23 24 25 26 27 28 29 30 31 32 33 34 35 36 37 38 39 40 41 42 43 44 45 46 47 48 49
000
FTUS46 KPQR 302001 AAA
TAFONP
TAF AMD
KONP 302001Z 3020/0118 31008KT P6SM VCSH SCT020 SCT040
     FM010100 34006KT P6SM BKN060
     FM010900 VRB02KT 3SM BR SCT005
     FM011600 08004KT P6SM SCT250=

USA.gov is the U.S. government's official web portal to all federal, state and local government web resources and services.